datetime,inst air temperature
2006-06-29,59.0
2006-06-30,53.78
2006-07-01,54.32
2006-07-02,55.76
2006-07-03,54.68
2006-07-04,53.6
2006-07-05,53.24
2006-07-06,48.2
2006-07-07,39.38
2006-07-08,54.32
2006-07-09,61.88
2006-07-10,54.5
2006-07-11,57.92
2006-07-12,53.78
2006-07-13,49.1
2006-07-14,57.38
2006-07-15,55.76
2006-07-16,55.58
2006-07-17,56.3
2006-07-18,50.72
2006-07-19,50.36
2006-07-20,54.5
2006-07-21,65.12
2006-07-22,66.02
2006-07-23,69.44
2006-07-24,63.14
2006-07-25,60.26
2006-07-26,56.48
2006-07-27,62.24
2006-07-28,61.52
2006-07-29,57.02
2006-07-30,47.12
2006-07-31,43.16
2006-08-01,44.06
2006-08-02,45.14
2006-08-03,53.6
2006-08-04,56.66
2006-08-05,55.22
2006-08-06,57.2
2006-08-07,50.18
2006-08-08,49.64
2006-08-09,49.64
2006-08-10,50.54
2006-08-11,47.3
2006-08-12,43.34
2006-08-13,50.54
2006-08-14,55.4
2006-08-15,50.9
2006-08-16,48.56
2006-08-17,40.64
2006-08-18,55.22
2006-08-19,53.24
2006-08-20,57.92
2006-08-21,61.34
2006-08-22,52.34
2006-08-23,51.62
2006-08-24,44.6
2006-08-25,45.14
2006-08-26,52.34
2006-08-27,50.9
2006-08-28,58.46
2006-08-29,57.2
2006-08-30,45.86
2006-08-31,42.62
2006-09-01,52.52
2006-09-02,56.66
2006-09-03,57.38
2006-09-04,54.68
2006-09-05,53.78
2006-09-06,56.12
2006-09-07,52.34
2006-09-08,53.6
2006-09-09,49.28
2006-09-10,44.24
2006-09-11,51.26
2006-09-12,55.58
2006-09-13,52.34
2006-09-14,47.66
2006-09-15,35.6
2006-09-16,34.16
2006-09-17,37.22
2006-09-18,47.3
2006-09-19,44.78
2006-09-20,32.0
2006-09-21,45.68
2006-09-22,32.54
2006-09-23,41.18
2006-09-24,42.98
2006-09-25,47.66
2006-09-26,49.82
2006-09-27,51.44
2006-09-28,50.72
2006-09-29,51.44
2006-09-30,52.7
2006-10-01,46.22
2006-10-02,42.62
2006-10-03,41.9
2006-10-04,38.66
2006-10-05,38.12
2006-10-06,40.46
2006-10-07,33.44
2006-10-08,41.72
2006-10-09,46.76
2006-10-10,34.16
2006-10-11,33.8
2006-10-12,42.8
2006-10-13,45.14
2006-10-14,44.78
2006-10-15,48.92
2006-10-16,37.58
2006-10-17,30.92
2006-10-18,30.92
2006-10-19,42.44
2006-10-20,
2006-10-21,32.54
2006-10-22,37.94
2006-10-23,44.78
2006-10-24,39.74
2006-10-25,26.06
2006-10-26,28.94
2006-10-27,37.04
2006-10-28,41.36
2006-10-29,41.72
2006-10-30,26.42
2006-10-31,18.86
2006-11-01,23.9
2006-11-02,33.98
2006-11-03,39.92
2006-11-04,39.38
2006-11-05,43.16
2006-11-06,46.76
2006-11-07,49.64
2006-11-08,39.02
2006-11-09,29.48
2006-11-10,24.98
2006-11-11,29.66
2006-11-12,24.26
2006-11-13,30.02
2006-11-14,29.66
2006-11-15,28.22
2006-11-16,38.3
2006-11-17,29.48
2006-11-18,30.74
2006-11-19,39.56
2006-11-20,41.9
2006-11-21,38.48
2006-11-22,30.74
2006-11-23,25.52
2006-11-24,27.68
2006-11-25,29.12
2006-11-26,24.26
2006-11-27,22.46
2006-11-28,17.78
2006-11-29,7.34
2006-11-30,17.42
2006-12-01,25.7
2006-12-02,17.78
2006-12-03,16.7
2006-12-04,22.64
2006-12-05,30.02
2006-12-06,31.1
2006-12-07,30.74
2006-12-08,37.58
2006-12-09,38.12
2006-12-10,34.34
2006-12-11,29.12
2006-12-12,32.36
2006-12-13,36.86
2006-12-14,35.24
2006-12-15,29.48
2006-12-16,13.64
2006-12-17,14.72
2006-12-18,13.46
2006-12-19,21.2
2006-12-20,22.82
2006-12-21,29.3
2006-12-22,24.26
2006-12-23,27.5
2006-12-24,28.94
2006-12-25,35.24
2006-12-26,34.7
2006-12-27,30.02
2006-12-28,10.76
2006-12-29,13.1
2006-12-30,23.0
2006-12-31,25.52
2007-01-01,24.62
2007-01-02,30.38
2007-01-03,37.58
2007-01-04,27.32
2007-01-05,14.54
2007-01-06,26.42
2007-01-07,28.22
2007-01-08,29.66
2007-01-09,31.28
2007-01-10,29.3
2007-01-11,11.12
2007-01-12,3.74
2007-01-13,7.7
2007-01-14,16.34
2007-01-15,9.86
2007-01-16,22.64
2007-01-17,19.22
2007-01-18,20.84
2007-01-19,26.6
2007-01-20,28.94
2007-01-21,14.54
2007-01-22,23.9
2007-01-23,26.78
2007-01-24,29.66
2007-01-25,32.0
2007-01-26,31.1
2007-01-27,30.74
2007-01-28,21.2
2007-01-29,25.34
2007-01-30,28.58
2007-01-31,25.52
2007-02-01,24.98
2007-02-02,14.9
2007-02-03,33.98
2007-02-04,33.62
2007-02-05,40.1
2007-02-06,40.46
2007-02-07,36.86
2007-02-08,30.74
2007-02-09,31.82
2007-02-10,35.96
2007-02-11,33.08
2007-02-12,27.14
2007-02-13,25.34
2007-02-14,24.62
2007-02-15,33.26
2007-02-16,38.12
2007-02-17,30.56
2007-02-18,36.14
2007-02-19,19.04
2007-02-20,30.92
2007-02-21,24.62
2007-02-22,27.86
2007-02-23,19.94
2007-02-24,23.0
2007-02-25,26.42
2007-02-26,21.2
2007-02-27,18.32
2007-02-28,19.58
2007-03-01,21.56
2007-03-02,27.14
2007-03-03,29.12
2007-03-04,30.38
2007-03-05,37.04
2007-03-06,31.1
2007-03-07,35.06
2007-03-08,24.98
2007-03-09,33.44
2007-03-10,32.36
2007-03-11,38.66
2007-03-12,42.8
2007-03-13,43.16
2007-03-14,33.62
2007-03-15,29.3
2007-03-16,41.72
2007-03-17,42.62
2007-03-18,41.0
2007-03-19,37.94
2007-03-20,32.54
2007-03-21,21.74
2007-03-22,30.56
2007-03-23,37.22
2007-03-24,40.64
2007-03-25,39.56
2007-03-26,29.66
2007-03-27,22.28
2007-03-28,20.66
2007-03-29,30.38
2007-03-30,34.34
2007-03-31,36.14
2007-04-01,30.92
2007-04-02,29.12
2007-04-03,30.38
2007-04-04,40.64
2007-04-05,32.9
2007-04-06,43.52
2007-04-07,42.08
2007-04-08,31.64
2007-04-09,33.44
2007-04-10,26.06
2007-04-11,32.36
2007-04-12,21.92
2007-04-13,25.88
2007-04-14,36.68
2007-04-15,25.34
2007-04-16,29.12
2007-04-17,34.88
2007-04-18,23.9
2007-04-19,21.2
2007-04-20,25.16
2007-04-21,30.38
2007-04-22,30.74
2007-04-23,26.6
2007-04-24,38.48
2007-04-25,40.46
2007-04-26,29.66
2007-04-27,36.32
2007-04-28,43.7
2007-04-29,44.06
2007-04-30,41.36
2007-05-01,40.46
2007-05-02,35.24
2007-05-03,26.96
2007-05-04,28.94
2007-05-05,24.98
2007-05-06,34.7
2007-05-07,41.36
2007-05-08,46.94
2007-05-09,44.96
2007-05-10,43.52
2007-05-11,41.36
2007-05-12,44.24
2007-05-13,28.76
2007-05-14,43.34
2007-05-15,49.1
2007-05-16,46.4
2007-05-17,42.62
2007-05-18,43.52
2007-05-19,46.22
2007-05-20,37.58
2007-05-21,34.34
2007-05-22,27.86
2007-05-23,37.58
2007-05-24,48.02
2007-05-25,44.96
2007-05-26,45.86
2007-05-27,51.26
2007-05-28,30.38
2007-05-29,48.02
2007-05-30,52.52
2007-05-31,58.82
2007-06-01,53.42
2007-06-02,59.18
2007-06-03,56.3
2007-06-04,53.96
2007-06-05,45.86
2007-06-06,31.1
2007-06-07,32.18
2007-06-08,39.2
2007-06-09,49.64
2007-06-10,49.82
2007-06-11,38.3
2007-06-12,36.86
2007-06-13,52.7
2007-06-14,45.32
2007-06-15,47.66
2007-06-16,49.28
2007-06-17,33.26
2007-06-18,42.44
2007-06-19,51.44
2007-06-20,52.16
2007-06-21,50.9
2007-06-22,50.36
2007-06-23,39.56
2007-06-24,34.34
2007-06-25,39.2
2007-06-26,48.56
2007-06-27,52.52
2007-06-28,49.82
2007-06-29,49.64
2007-06-30,40.64
2007-07-01,47.12
2007-07-02,53.24
2007-07-03,48.02
2007-07-04,60.44
2007-07-05,69.44
2007-07-06,59.0
2007-07-07,63.32
2007-07-08,52.88
2007-07-09,56.84
2007-07-10,64.04
2007-07-11,66.56
2007-07-12,57.56
2007-07-13,57.74
2007-07-14,56.3
2007-07-15,57.56
2007-07-16,53.96
2007-07-17,53.06
2007-07-18,51.98
2007-07-19,47.12
2007-07-20,44.06
2007-07-21,54.14
2007-07-22,52.88
2007-07-23,56.84
2007-07-24,53.78
2007-07-25,53.06
2007-07-26,57.92
2007-07-27,55.76
2007-07-28,62.06
2007-07-29,54.86
2007-07-30,50.18
2007-07-31,57.92
2007-08-01,64.58
2007-08-02,68.18
2007-08-03,50.9
2007-08-04,52.52
2007-08-05,48.38
2007-08-06,46.58
2007-08-07,47.84
2007-08-08,48.38
2007-08-09,50.36
2007-08-10,47.48
2007-08-11,49.28
2007-08-12,52.52
2007-08-13,47.48
2007-08-14,53.96
2007-08-15,55.76
2007-08-16,52.34
2007-08-17,47.3
2007-08-18,42.08
2007-08-19,54.14
2007-08-20,49.82
2007-08-21,51.26
2007-08-22,47.12
2007-08-23,53.42
2007-08-24,55.4
2007-08-25,53.42
2007-08-26,52.88
2007-08-27,43.16
2007-08-28,52.52
2007-08-29,57.56
2007-08-30,63.32
2007-08-31,54.32
2007-09-01,50.0
2007-09-02,52.7
2007-09-03,52.52
2007-09-04,55.04
2007-09-05,38.84
2007-09-06,49.64
2007-09-07,53.24
2007-09-08,51.08
2007-09-09,46.4
2007-09-10,53.24
2007-09-11,50.54
2007-09-12,57.74
2007-09-13,51.44
2007-09-14,45.32
2007-09-15,38.48
2007-09-16,44.78
2007-09-17,44.06
2007-09-18,37.58
2007-09-19,30.2
2007-09-20,38.3
2007-09-21,44.78
2007-09-22,48.92
2007-09-23,38.12
2007-09-24,25.88
2007-09-25,37.76
2007-09-26,45.86
2007-09-27,47.3
2007-09-28,48.74
2007-09-29,29.48
2007-09-30,39.92
2007-10-01,35.06
2007-10-02,32.54
2007-10-03,40.82
2007-10-04,30.92
2007-10-05,27.86
2007-10-06,25.16
2007-10-07,34.7
2007-10-08,39.74
2007-10-09,49.46
2007-10-10,41.36
2007-10-11,29.3
2007-10-12,32.54
2007-10-13,34.16
2007-10-14,37.58
2007-10-15,42.26
2007-10-16,36.68
2007-10-17,30.74
2007-10-18,31.1
2007-10-19,43.16
2007-10-20,30.74
2007-10-21,26.42
2007-10-22,33.26
2007-10-23,44.06
2007-10-24,46.22
2007-10-25,37.58
2007-10-26,28.76
2007-10-27,35.6
2007-10-28,39.02
2007-10-29,41.0
2007-10-30,40.46
2007-10-31,29.84
2007-11-01,36.5
2007-11-02,32.0
2007-11-03,33.8
2007-11-04,39.02
2007-11-05,37.94
2007-11-06,38.66
2007-11-07,41.36
2007-11-08,44.06
2007-11-09,41.54
2007-11-10,40.1
2007-11-11,34.7
2007-11-12,32.72
2007-11-13,42.26
2007-11-14,29.3
2007-11-15,40.1
2007-11-16,40.1
2007-11-17,40.1
2007-11-18,40.82
2007-11-19,36.14
2007-11-20,22.28
2007-11-21,22.82
2007-11-22,22.82
2007-11-23,20.66
2007-11-24,27.86
2007-11-25,34.7
2007-11-26,26.78
2007-11-27,29.48
2007-11-28,16.88
2007-11-29,27.68
2007-11-30,16.16
2007-12-01,15.26
2007-12-02,24.26
2007-12-03,33.62
2007-12-04,38.48
2007-12-05,33.98
2007-12-06,30.38
2007-12-07,26.96
2007-12-08,23.72
2007-12-09,11.66
2007-12-10,21.56
2007-12-11,14.18
2007-12-12,25.88
2007-12-13,20.48
2007-12-14,20.3
2007-12-15,29.3
2007-12-16,23.54
2007-12-17,26.96
2007-12-18,29.12
2007-12-19,29.84
2007-12-20,28.76
2007-12-21,18.5
2007-12-22,15.08
2007-12-23,29.66
2007-12-24,31.82
2007-12-25,10.04
2007-12-26,21.38
2007-12-27,13.1
2007-12-28,25.34
2007-12-29,25.7
2007-12-30,24.98
2007-12-31,12.92
2008-01-01,16.88
2008-01-02,23.9
2008-01-03,29.66
2008-01-04,30.74
2008-01-05,26.24
2008-01-06,21.2
2008-01-07,22.46
2008-01-08,21.38
2008-01-09,26.42
2008-01-10,27.14
2008-01-11,30.92
2008-01-12,28.94
2008-01-13,24.62
2008-01-14,24.62
2008-01-15,24.8
2008-01-16,11.84
2008-01-17,14.54
2008-01-18,27.14
2008-01-19,25.88
2008-01-20,24.44
2008-01-21,14.54
2008-01-22,8.42
2008-01-23,3.38
2008-01-24,6.26
2008-01-25,17.06
2008-01-26,25.7
2008-01-27,29.66
2008-01-28,16.34
2008-01-29,19.04
2008-01-30,17.78
2008-01-31,23.9
2008-02-01,22.1
2008-02-02,19.58
2008-02-03,26.24
2008-02-04,18.86
2008-02-05,16.7
2008-02-06,25.16
2008-02-07,27.86
2008-02-08,24.8
2008-02-09,30.56
2008-02-10,31.46
2008-02-11,30.92
2008-02-12,30.38
2008-02-13,32.9
2008-02-14,15.26
2008-02-15,27.32
2008-02-16,31.28
2008-02-17,26.78
2008-02-18,25.34
2008-02-19,30.2
2008-02-20,28.58
2008-02-21,28.04
2008-02-22,26.42
2008-02-23,16.7
2008-02-24,27.86
2008-02-25,31.82
2008-02-26,25.34
2008-02-27,32.54
2008-02-28,28.58
2008-02-29,32.9
2008-03-01,30.38
2008-03-02,14.36
2008-03-03,25.16
2008-03-04,25.52
2008-03-05,21.56
2008-03-06,26.06
2008-03-07,27.14
2008-03-08,31.82
2008-03-09,27.68
2008-03-10,35.96
2008-03-11,35.78
2008-03-12,35.6
2008-03-13,30.56
2008-03-14,27.14
2008-03-15,23.9
2008-03-16,18.14
2008-03-17,26.42
2008-03-18,34.16
2008-03-19,35.06
2008-03-20,24.98
2008-03-21,26.06
2008-03-22,19.94
2008-03-23,31.82
2008-03-24,33.26
2008-03-25,29.84
2008-03-26,26.78
2008-03-27,18.5
2008-03-28,16.34
2008-03-29,16.34
2008-03-30,12.38
2008-03-31,8.24
2008-04-01,19.22
2008-04-02,23.9
2008-04-03,32.36
2008-04-04,36.14
2008-04-05,23.54
2008-04-06,28.76
2008-04-07,23.9
2008-04-08,26.06
2008-04-09,25.34
2008-04-10,27.86
2008-04-11,27.68
2008-04-12,36.5
2008-04-13,42.62
2008-04-14,42.8
2008-04-15,19.22
2008-04-16,19.58
2008-04-17,31.28
2008-04-18,38.3
2008-04-19,24.62
2008-04-20,16.7
2008-04-21,18.5
2008-04-22,27.32
2008-04-23,29.3
2008-04-24,24.8
2008-04-25,30.38
2008-04-26,33.62
2008-04-27,39.2
2008-04-28,41.72
2008-04-29,32.9
2008-04-30,21.56
2008-05-01,21.02
2008-05-02,31.82
2008-05-03,37.58
2008-05-04,32.0
2008-05-05,40.46
2008-05-06,38.66
2008-05-07,35.06
2008-05-08,30.2
2008-05-09,33.26
2008-05-10,34.52
2008-05-11,37.94
2008-05-12,25.34
2008-05-13,37.58
2008-05-14,39.74
2008-05-15,43.34
2008-05-16,52.16
2008-05-17,51.62
2008-05-18,56.12
2008-05-19,52.88
2008-05-20,51.98
2008-05-21,29.66
2008-05-22,30.74
2008-05-23,31.64
2008-05-24,36.14
2008-05-25,38.3
2008-05-26,38.3
2008-05-27,39.56
2008-05-28,41.36
2008-05-29,38.3
2008-05-30,38.84
2008-05-31,42.26
2008-06-01,38.66
2008-06-02,34.16
2008-06-03,41.0
2008-06-04,32.18
2008-06-05,30.38
2008-06-06,35.96
2008-06-07,29.12
2008-06-08,30.92
2008-06-09,45.5
2008-06-10,34.34
2008-06-11,26.96
2008-06-12,32.36
2008-06-13,44.24
2008-06-14,44.24
2008-06-15,45.32
2008-06-16,45.68
2008-06-17,48.56
2008-06-18,41.36
2008-06-19,44.06
2008-06-20,46.94
2008-06-21,54.14
2008-06-22,43.7
2008-06-23,43.34
2008-06-24,42.26
2008-06-25,46.58
2008-06-26,45.14
2008-06-27,55.4
2008-06-28,65.12
2008-06-29,57.74
2008-06-30,58.82
2008-07-01,55.04
2008-07-02,57.92
2008-07-03,57.92
2008-07-04,53.96
2008-07-05,51.26
2008-07-06,48.02
2008-07-07,51.98
2008-07-08,62.06
2008-07-09,64.4
2008-07-10,53.96
2008-07-11,54.14
2008-07-12,54.68
2008-07-13,63.68
2008-07-14,61.88
2008-07-15,64.04
2008-07-16,53.6
2008-07-17,49.46
2008-07-18,48.92
2008-07-19,46.76
2008-07-20,49.1
2008-07-21,57.2
2008-07-22,57.02
2008-07-23,46.04
2008-07-24,49.28
2008-07-25,52.88
2008-07-26,47.12
2008-07-27,49.28
2008-07-28,46.76
2008-07-29,50.9
2008-07-30,48.92
2008-07-31,50.54
2008-08-01,55.58
2008-08-02,52.88
2008-08-03,46.94
2008-08-04,52.34
2008-08-05,59.72
2008-08-06,60.08
2008-08-07,55.76
2008-08-08,52.88
2008-08-09,48.02
2008-08-10,42.8
2008-08-11,45.5
2008-08-12,55.4
2008-08-13,51.26
2008-08-14,61.88
2008-08-15,68.0
2008-08-16,68.36
2008-08-17,71.24
2008-08-18,62.6
2008-08-19,50.18
2008-08-20,54.68
2008-08-21,50.54
2008-08-22,43.7
2008-08-23,50.72
2008-08-24,54.86
2008-08-25,54.5
2008-08-26,33.26
2008-08-27,49.28
2008-08-28,48.56
2008-08-29,58.1
2008-08-30,52.88
2008-08-31,29.66
2008-09-01,28.58
2008-09-02,43.7
2008-09-03,41.72
2008-09-04,47.12
2008-09-05,51.98
2008-09-06,50.72
2008-09-07,53.78
2008-09-08,52.88
2008-09-09,50.18
2008-09-10,44.42
2008-09-11,44.06
2008-09-12,50.54
2008-09-13,48.38
2008-09-14,51.44
2008-09-15,58.64
2008-09-16,58.64
2008-09-17,57.56
2008-09-18,53.78
2008-09-19,48.02
2008-09-20,42.98
2008-09-21,40.1
2008-09-22,34.52
2008-09-23,31.82
2008-09-24,48.02
2008-09-25,50.36
2008-09-26,36.5
2008-09-27,47.3
2008-09-28,51.62
2008-09-29,56.66
2008-09-30,56.84
2008-10-01,54.68
2008-10-02,57.74
2008-10-03,42.8
2008-10-04,43.7
2008-10-05,38.48
2008-10-06,39.74
2008-10-07,45.5
2008-10-08,32.18
2008-10-09,29.66
2008-10-10,25.34
2008-10-11,29.3
2008-10-12,25.52
2008-10-13,32.18
2008-10-14,44.24
2008-10-15,31.46
2008-10-16,41.0
2008-10-17,42.98
2008-10-18,46.94
2008-10-19,39.2
2008-10-20,44.6
2008-10-21,31.82
2008-10-22,31.28
2008-10-23,40.82
2008-10-24,37.76
2008-10-25,43.16
2008-10-26,47.3
2008-10-27,42.44
2008-10-28,45.14
2008-10-29,41.9
2008-10-30,47.66
2008-10-31,45.14
2008-11-01,46.94
2008-11-02,37.58
2008-11-03,31.28
2008-11-04,29.3
2008-11-05,24.8
2008-11-06,32.0
2008-11-07,37.94
2008-11-08,37.22
2008-11-09,32.54
2008-11-10,33.08
2008-11-11,33.08
2008-11-12,44.24
2008-11-13,43.7
2008-11-14,30.74
2008-11-15,36.14
2008-11-16,39.74
2008-11-17,44.06
2008-11-18,42.98
2008-11-19,40.82
2008-11-20,31.82
2008-11-21,24.26
2008-11-22,28.94
2008-11-23,22.82
2008-11-24,29.66
2008-11-25,34.52
2008-11-26,34.34
2008-11-27,28.58
2008-11-28,35.78
2008-11-29,36.14
2008-11-30,37.58
2008-12-01,37.76
2008-12-02,39.02
2008-12-03,27.86
2008-12-04,26.06
2008-12-05,24.26
2008-12-06,34.7
2008-12-07,38.48
2008-12-08,30.74
2008-12-09,21.56
2008-12-10,30.2
2008-12-11,32.72
2008-12-12,30.38
2008-12-13,19.04
2008-12-14,19.58
2008-12-15,20.66
2008-12-16,-0.58
2008-12-17,5.72
2008-12-18,16.7
2008-12-19,17.6
2008-12-20,18.68
2008-12-21,24.62
2008-12-22,19.76
2008-12-23,17.78
2008-12-24,17.42
2008-12-25,25.7
2008-12-26,13.1
2008-12-27,21.74
2008-12-28,32.0
2008-12-29,31.46
2008-12-30,25.16
2008-12-31,27.5
2009-01-01,31.64
2009-01-02,34.7
2009-01-03,15.98
2009-01-04,6.98
2009-01-05,21.56
2009-01-06,31.1
2009-01-07,34.52
2009-01-08,33.26
2009-01-09,19.4
2009-01-10,19.04
2009-01-11,32.36
2009-01-12,38.48
2009-01-13,31.82
2009-01-14,32.36
2009-01-15,34.16
2009-01-16,33.8
2009-01-17,33.8
2009-01-18,30.56
2009-01-19,25.7
2009-01-20,26.96
2009-01-21,27.86
2009-01-22,31.64
2009-01-23,34.16
2009-01-24,33.62
2009-01-25,26.06
2009-01-26,20.3
2009-01-27,10.58
2009-01-28,31.1
2009-01-29,21.2
2009-01-30,29.3
2009-01-31,33.62
2009-02-01,21.92
2009-02-02,27.5
2009-02-03,33.62
2009-02-04,35.42
2009-02-05,37.76
2009-02-06,30.38
2009-02-07,32.18
2009-02-08,21.38
2009-02-09,22.82
2009-02-10,18.5
2009-02-11,21.56
2009-02-12,18.86
2009-02-13,24.26
2009-02-14,21.74
2009-02-15,24.98
2009-02-16,28.58
2009-02-17,28.22
2009-02-18,26.06
2009-02-19,23.9
2009-02-20,27.14
2009-02-21,27.86
2009-02-22,35.6
2009-02-23,32.54
2009-02-24,31.64
2009-02-25,31.46
2009-02-26,29.3
2009-02-27,17.24
2009-02-28,28.58
2009-03-01,39.02
2009-03-02,39.38
2009-03-03,30.38
2009-03-04,25.88
2009-03-05,21.38
2009-03-06,23.9
2009-03-07,16.7
2009-03-08,22.28
2009-03-09,8.96
2009-03-10,17.96
2009-03-11,18.32
2009-03-12,25.16
2009-03-13,26.78
2009-03-14,33.62
2009-03-15,30.02
2009-03-16,31.46
2009-03-17,27.86
2009-03-18,27.86
2009-03-19,31.46
2009-03-20,33.26
2009-03-21,36.86
2009-03-22,27.32
2009-03-23,16.7
2009-03-24,28.22
2009-03-25,30.02
2009-03-26,32.36
2009-03-27,29.84
2009-03-28,39.02
2009-03-29,23.9
2009-03-30,15.62
2009-03-31,26.06
2009-04-01,25.16
2009-04-02,34.52
2009-04-03,22.64
2009-04-04,13.1
2009-04-05,30.56
2009-04-06,38.3
2009-04-07,36.5
2009-04-08,33.62
2009-04-09,32.54
2009-04-10,28.22
2009-04-11,28.04
2009-04-12,30.92
2009-04-13,36.14
2009-04-14,19.04
2009-04-15,23.54
2009-04-16,21.74
2009-04-17,32.54
2009-04-18,32.72
2009-04-19,41.36
2009-04-20,44.06
2009-04-21,46.4
2009-04-22,45.32
2009-04-23,39.74
2009-04-24,26.6
2009-04-25,27.32
2009-04-26,24.08
2009-04-27,28.58
2009-04-28,27.5
2009-04-29,27.32
2009-04-30,26.96
2009-05-01,37.58
2009-05-02,39.38
2009-05-03,32.54
2009-05-04,30.02
2009-05-05,39.74
2009-05-06,36.5
2009-05-07,35.96
2009-05-08,27.5
2009-05-09,34.7
2009-05-10,33.98
2009-05-11,36.32
2009-05-12,35.06
2009-05-13,26.42
2009-05-14,40.64
2009-05-15,36.14
2009-05-16,43.7
2009-05-17,46.76
2009-05-18,54.32
2009-05-19,47.3
2009-05-20,28.58
2009-05-21,41.18
2009-05-22,45.32
2009-05-23,48.02
2009-05-24,40.82
2009-05-25,41.0
2009-05-26,40.82
2009-05-27,42.44
2009-05-28,49.46
2009-05-29,50.72
2009-05-30,55.4
2009-05-31,53.06
2009-06-01,50.36
2009-06-02,47.84
2009-06-03,43.88
2009-06-04,45.86
2009-06-05,39.2
2009-06-06,43.34
2009-06-07,44.6
2009-06-08,40.46
2009-06-09,43.7
2009-06-10,44.96
2009-06-11,44.78
2009-06-12,42.62
2009-06-13,42.08
2009-06-14,46.58
2009-06-15,46.22
2009-06-16,42.8
2009-06-17,48.92
2009-06-18,41.72
2009-06-19,48.02
2009-06-20,37.22
2009-06-21,40.1
2009-06-22,31.46
2009-06-23,46.76
2009-06-24,49.82
2009-06-25,50.0
2009-06-26,43.16
2009-06-27,50.72
2009-06-28,55.04
2009-06-29,48.56
2009-06-30,48.2
2009-07-01,55.4
2009-07-02,55.22
2009-07-03,59.72
2009-07-04,56.48
2009-07-05,55.58
2009-07-06,49.64
2009-07-07,42.8
2009-07-08,38.3
2009-07-09,40.64
2009-07-10,51.44
2009-07-11,48.92
2009-07-12,50.9
2009-07-13,45.14
2009-07-14,46.22
2009-07-15,51.26
2009-07-16,56.48
2009-07-17,55.76
2009-07-18,56.66
2009-07-19,50.72
2009-07-20,57.56
2009-07-21,60.8
2009-07-22,56.66
2009-07-23,55.04
2009-07-24,55.58
2009-07-25,58.1
2009-07-26,56.66
2009-07-27,64.04
2009-07-28,66.56
2009-07-29,67.1
2009-07-30,60.44
2009-07-31,64.04
2009-08-01,64.4
2009-08-02,64.04
2009-08-03,52.52
2009-08-04,59.72
2009-08-05,50.72
2009-08-06,48.02
2009-08-07,43.34
2009-08-08,37.58
2009-08-09,45.5
2009-08-10,50.72
2009-08-11,53.24
2009-08-12,53.24
2009-08-13,54.32
2009-08-14,42.44
2009-08-15,36.5
2009-08-16,43.7
2009-08-17,53.06
2009-08-18,55.76
2009-08-19,59.72
2009-08-20,63.32
2009-08-21,60.08
2009-08-22,48.2
2009-08-23,51.08
2009-08-24,44.24
2009-08-25,57.92
2009-08-26,50.18
2009-08-27,55.76
2009-08-28,54.5
2009-08-29,55.4
2009-08-30,48.02
2009-08-31,54.14
2009-09-01,55.04
2009-09-02,50.0
2009-09-03,54.68
2009-09-04,49.1
2009-09-05,53.24
2009-09-06,42.44
2009-09-07,38.3
2009-09-08,38.48
2009-09-09,48.2
2009-09-10,50.0
2009-09-11,57.38
2009-09-12,59.36
2009-09-13,60.98
2009-09-14,47.84
2009-09-15,42.62
2009-09-16,55.76
2009-09-17,50.54
2009-09-18,52.52
2009-09-19,55.04
2009-09-20,37.76
2009-09-21,48.74
2009-09-22,55.22
2009-09-23,55.76
2009-09-24,54.86
2009-09-25,55.58
2009-09-26,54.68
2009-09-27,53.42
2009-09-28,55.58
2009-09-29,39.38
2009-09-30,
2009-10-01,28.22
2009-10-02,34.7
2009-10-03,27.68
2009-10-04,24.8
2009-10-05,36.14
2009-10-06,29.66
2009-10-07,38.12
2009-10-08,43.16
2009-10-09,37.94
2009-10-10,39.2
2009-10-11,34.88
2009-10-12,42.98
2009-10-13,40.46
2009-10-14,40.46
2009-10-15,43.7
2009-10-16,44.42
2009-10-17,46.04
2009-10-18,44.6
2009-10-19,38.66
2009-10-20,32.18
2009-10-21,37.58
2009-10-22,39.02
2009-10-23,39.74
2009-10-24,44.06
2009-10-25,36.68
2009-10-26,38.66
2009-10-27,26.96
2009-10-28,24.26
2009-10-29,29.12
2009-10-30,41.36
2009-10-31,40.1
2009-11-01,39.92
2009-11-02,31.1
2009-11-03,34.7
2009-11-04,39.92
2009-11-05,46.04
2009-11-06,39.74
2009-11-07,31.46
2009-11-08,30.02
2009-11-09,28.4
2009-11-10,32.0
2009-11-11,32.9
2009-11-12,22.46
2009-11-13,15.44
2009-11-14,22.82
2009-11-15,22.82
2009-11-16,29.12
2009-11-17,37.04
2009-11-18,25.52
2009-11-19,26.42
2009-11-20,34.7
2009-11-21,23.36
2009-11-22,27.14
2009-11-23,24.8
2009-11-24,28.94
2009-11-25,31.64
2009-11-26,35.42
2009-11-27,35.06
2009-11-28,19.04
2009-11-29,27.5
2009-11-30,28.76
2009-12-01,33.26
2009-12-02,25.34
2009-12-03,21.56
2009-12-04,23.54
2009-12-05,21.02
2009-12-06,7.88
2009-12-07,7.52
2009-12-08,-5.08
2009-12-09,3.56
2009-12-10,8.6
2009-12-11,17.24
2009-12-12,25.88
2009-12-13,29.84
2009-12-14,20.66
2009-12-15,29.84
2009-12-16,31.1
2009-12-17,32.54
2009-12-18,32.36
2009-12-19,32.54
2009-12-20,37.4
2009-12-21,33.62
2009-12-22,20.66
2009-12-23,13.28
2009-12-24,22.46
2009-12-25,25.88
2009-12-26,21.92
2009-12-27,26.42
2009-12-28,27.86
2009-12-29,17.96
2009-12-30,26.06
2009-12-31,25.7
2010-01-01,31.1
2010-01-02,29.84
2010-01-03,25.16
2010-01-04,27.86
2010-01-05,33.62
2010-01-06,36.68
2010-01-07,33.26
2010-01-08,35.78
2010-01-09,36.14
2010-01-10,31.46
2010-01-11,34.52
2010-01-12,40.1
2010-01-13,35.06
2010-01-14,30.02
2010-01-15,32.0
2010-01-16,34.34
2010-01-17,33.62
2010-01-18,32.54
2010-01-19,30.74
2010-01-20,27.86
2010-01-21,28.58
2010-01-22,26.96
2010-01-23,20.66
2010-01-24,26.24
2010-01-25,27.5
2010-01-26,30.2
2010-01-27,29.3
2010-01-28,26.06
2010-01-29,29.66
2010-01-30,30.38
2010-01-31,29.12
2010-02-01,24.8
2010-02-02,29.66
2010-02-03,30.74
2010-02-04,28.94
2010-02-05,31.46
2010-02-06,31.1
2010-02-07,28.04
2010-02-08,29.66
2010-02-09,28.4
2010-02-10,25.34
2010-02-11,31.82
2010-02-12,32.18
2010-02-13,32.9
2010-02-14,35.6
2010-02-15,34.34
2010-02-16,36.14
2010-02-17,30.2
2010-02-18,29.12
2010-02-19,24.26
2010-02-20,25.88
2010-02-21,21.2
2010-02-22,19.04
2010-02-23,27.32
2010-02-24,29.66
2010-02-25,30.2
2010-02-26,32.54
2010-02-27,30.38
2010-02-28,25.7
2010-03-01,32.9
2010-03-02,37.22
2010-03-03,31.46
2010-03-04,26.78
2010-03-05,23.36
2010-03-06,31.1
2010-03-07,29.3
2010-03-08,30.02
2010-03-09,13.28
2010-03-10,19.94
2010-03-11,21.38
2010-03-12,30.2
2010-03-13,19.76
2010-03-14,21.2
2010-03-15,29.12
2010-03-16,41.9
2010-03-17,32.54
2010-03-18,28.94
2010-03-19,28.76
2010-03-20,34.88
2010-03-21,39.02
2010-03-22,30.02
2010-03-23,23.72
2010-03-24,34.34
2010-03-25,30.92
2010-03-26,24.98
2010-03-27,21.74
2010-03-28,40.64
2010-03-29,35.78
2010-03-30,26.42
2010-03-31,22.82
2010-04-01,15.8
2010-04-02,22.1
2010-04-03,21.02
2010-04-04,24.8
2010-04-05,22.28
2010-04-06,26.06
2010-04-07,26.24
2010-04-08,36.68
2010-04-09,15.98
2010-04-10,29.3
2010-04-11,33.44
2010-04-12,30.02
2010-04-13,26.78
2010-04-14,31.1
2010-04-15,30.02
2010-04-16,35.06
2010-04-17,36.68
2010-04-18,34.88
2010-04-19,37.04
2010-04-20,41.36
2010-04-21,29.66
2010-04-22,25.7
2010-04-23,31.46
2010-04-24,37.76
2010-04-25,34.88
2010-04-26,40.82
2010-04-27,37.4
2010-04-28,26.24
2010-04-29,25.34
2010-04-30,22.1
2010-05-01,33.44
2010-05-02,27.86
2010-05-03,40.82
2010-05-04,23.54
2010-05-05,29.48
2010-05-06,19.58
2010-05-07,30.74
2010-05-08,35.42
2010-05-09,33.08
2010-05-10,33.26
2010-05-11,28.22
2010-05-12,30.2
2010-05-13,38.48
2010-05-14,40.1
2010-05-15,42.98
2010-05-16,42.44
2010-05-17,44.06
2010-05-18,38.3
2010-05-19,33.26
2010-05-20,29.3
2010-05-21,31.64
2010-05-22,24.26
2010-05-23,25.34
2010-05-24,32.72
2010-05-25,35.6